User: anonymous   Login
Location: Les Thiberg�res
(47.8554°N, 1.0978°W)
Time: 06:15:38
(UTC+00:00)
Language:

METEOR-M - Orbit

View from above orbital plane
View from above orbital plane
View from above satellite
View from above satellite

Ground track
Ground track

The orbit data is extracted from the following two-line orbital elements,

1 35865U 09049A   20152.56327554  .00000022  00000-0  28643-4 0  9997
2 35865  98.4376 140.3233 0001349 217.2335 142.8750 14.22238916555518
Epoch (UTC): 31 May 2020 13:31:07
Eccentricity: 0.0001349
inclination: 98.4376°
perigee height: 817 km
apogee height: 819 km
right ascension of ascending node: 140.3233°
argument of perigee: 217.2335°
revolutions per day: 14.22238916
mean anomaly at epoch: 142.8750°
orbit number at epoch: 55551

The dashed part of the orbit path shows where the satellite is in the earth's shadow,  

DLR